Regional Weather Roundup
Issued by NWS

Home | Current Version | Previous Version | Graphics & Text | Print | Product List | Glossary On
Versions: 1 2 3 4 5 6 7 8 9 10 11 12 13 14 15 16 17 18 19 20 21 22 23 24 25 26 27 28 29 30 31 32 33 34 35 36 37 38 39 40 41 42 43 44 45 46 47 48 49 50
000
ASUS43 KLOT 211209
RWRIL

ILLINOIS REGIONAL WEATHER ROUNDUP
NATIONAL WEATHER SERVICE CHICAGO/ROMEOVILLE IL
700 AM CDT SAT OCT 21 2017

NOTE: "FAIR" INDICATES FEW OR NO CLOUDS BELOW 12,000 FEET WITH NO
SIGNIFICANT WEATHER AND/OR OBSTRUCTIONS TO VISIBILITY.

* THESE STATIONS ARE NOT UNDER NWS QUALITY CONTROL. THEY ALSO MAY NOT
  REPORT WEATHER SUCH AS PRECIPITATION OR FOG.

ILZ001-002-007-009-015-016-024-211300-
NORTHWEST ILLINOIS

CITY           SKY/WX    TMP DP  RH WIND       PRES   REMARKS
MOLINE         CLOUDY    65  50  58 S16G24    29.95R
6HR MIN TEMP:  64; 6HR MAX TEMP:  67;

STERLING*      LGT RAIN  61  52  72 VRB5        N/A
SAVANNA*       CLOUDY    61  51  69 S12       29.96S
$$

ILZ003-004-008-010-011-017-018-211300-
NORTH CENTRAL ILLINOIS

CITY           SKY/WX    TMP DP  RH WIND       PRES   REMARKS
ROCKFORD       CLOUDY    58  50  75 S9        30.02R
6HR MIN TEMP:  58; 6HR MAX TEMP:  63;

FREEPORT*      CLOUDY    60  50  69 S14       29.99S
ROCHELLE*      MOCLDY    57  50  79 SE8       30.02F
DE KALB*       MOCLDY    56  49  78 SE9       30.04S
PERU*          CLOUDY    61  48  63 S10       30.03F
$$

ILZ005-006-012>014-019>023-211300-
NORTHEAST ILLINOIS

CITY           SKY/WX    TMP DP  RH WIND       PRES   REMARKS
CHICAGO-OHARE  CLOUDY    61  49  64 S13       30.05S
6HR MIN TEMP:  60; 6HR MAX TEMP:  66;

CHICAGO-MIDWAY CLOUDY    63  50  62 S10       30.07R
6HR MIN TEMP:  62; 6HR MAX TEMP:  66;

AURORA         CLOUDY    58  50  75 S8        30.05R
6HR MIN TEMP:  55; 6HR MAX TEMP:  60;

LANSING*       CLOUDY    56  50  80 S9        30.10R
JOLIET*        CLOUDY    62  51  69 S7        30.07S
WAUKEGAN       PTCLDY    62  49  62 S7G17     30.03R
6HR MIN TEMP:  61; 6HR MAX TEMP:  66;

DUPAGE AIRPORT CLOUDY    57  51  80 S8        30.05R
6HR MIN TEMP:  56; 6HR MAX TEMP:  63;

KANKAKEE*      CLOUDY    52  47  84 SE6       30.10S
WHEELING       CLOUDY    62  50  64 S12       30.06S
6HR MIN TEMP:  61; 6HR MAX TEMP:  67;

MORRIS*        CLOUDY    59  50  71 S7        30.05S
ROMEOVILLE*    CLOUDY    57  50  77 S9        30.07R
NORTHERLY ISL    N/A     64  47  53 S14         N/A
$$

LMZ740>746-211300-
SOUTHERN LAKE MICHIGAN

STATION/POSITION SKY/WX   TEMP    WIND        PRES    VSBY  WAVE
                          AIR SEA DIR/SP/G                  HT/PER
                          (F)     (DEG/KT/KT) (MB)    (MI)  (FT/S)
SOUTHERN BUOY              62 61  180/ 16/ 19 1017.9          2/ 4
WILMETTE HARBOR            62 60  170/ 12/ 16   N/A           2/ 3
HARRISON CRIB              64     190/ 18/ 19   N/A
BURNHAM HARBOR             63     180/ 11/ 16   N/A
CALUMET HARBOR             62     180/ 10/ 14 1017.8R
BURNS HARBOR               60     180/ 14/ 18 1019.0F
MICHIGAN CITY              61     160/ 13/ 16   N/A
MICHIGAN CITY 6N           59 58  180/ 14/ 16   N/A           1/ 2
ST. JOSEPH                 61 59  180/ 14/ 17 1019.7          2/ 3
$$

ILZ025>027-034>036-040-047-049-050-058-095>099-211300-
WEST-CENTRAL ILLINOIS

CITY           SKY/WX    TMP DP  RH WIND       PRES   REMARKS
QUINCY         PTCLDY    64  53  67 S14       29.97R
GALESBURG*     CLOUDY    65  60  83 SE7       29.99S
MACOMB*        CLOUDY    61  52  72 S10       30.00S
JACKSONVILLE*  CLOUDY    62  52  71 S12G18    30.01F
PITTSFIELD*    CLOUDY    61  54  77 SE9       30.01S
$$

ILZ028>032-037-038-041>044-048-051>054-059>061-211300-
CENTRAL ILLINOIS

CITY           SKY/WX    TMP DP  RH WIND       PRES   REMARKS
PONTIAC        CLOUDY    59  52  79 S10       30.07F
BLOOMINGTON    PTCLDY    55  50  83 S10       30.07F
DECATUR        PTCLDY    58  49  72 S15       30.09S
PEORIA         MOCLDY    61  52  72 S15       30.02F
6HR MIN TEMP:  60; 6HR MAX TEMP:  63; 6HR PCP: TRACE;

LACON*         CLOUDY    61  51  69 S9        30.01F
LINCOLN*       CLOUDY    58  52  79 S7        30.05F
SPRINGFIELD    CLOUDY    61  52  72 S12       30.04S
6HR MIN TEMP:  61; 6HR MAX TEMP:  65; 6HR PCP: TRACE;

TAYLORVILLE    CLOUDY    56  49  77 S10       30.07S
6HR MIN TEMP:  56; 6HR MAX TEMP:  62;

$$

ILZ033-039-045-046-055>057-062-063-211300-
EAST-CENTRAL ILLINOIS

CITY           SKY/WX    TMP DP  RH WIND       PRES   REMARKS
CHAMPAIGN      PTCLDY    51  46  83 SE8       30.11S
DANVILLE*      CLOUDY    53  47  79 S7        30.11S
RANTOUL*       PTCLDY    54  50  86 S5        30.11S
MATTOON        CLOUDY    54  49  83 SE7       30.11S
PARIS*         PTCLDY    48  46  93 SE6       30.15S
$$

ILZ079-100>102-211300-
SOUTHWEST ILLINOIS

CITY           SKY/WX    TMP DP  RH WIND       PRES   REMARKS
ALTON          MOCLDY    57  54  88 SE10      30.06S
CAHOKIA*       MOCLDY    63  52  67 SE9       30.05S
SPARTA*        MOCLDY    62  52  70 S5        30.11R
$$

ILZ064>066-069>071-074>076-080>082-084>086-088>090-092>094-211300-
SOUTH-CENTRAL ILLINOIS

CITY           SKY/WX    TMP DP  RH WIND       PRES   REMARKS
CARBONDALE     CLOUDY    58  52  80 SE6       30.11R
6HR MIN TEMP:  55; 6HR MAX TEMP:  59;

CAIRO*         CLOUDY    61  51  68 S7        30.12R
EFFINGHAM*     CLOUDY    55  49  81 SE7       30.13S
MARION         MOCLDY    59  50  72 S9        30.13R
MT. VERNON     CLOUDY    56  49  77 S3        30.12S
CENTRALIA*     MOCLDY    60  51  73 S9        30.10S
SALEM*         PTCLDY    57  48  72 SE3       30.11S
METROPOLIS*    CLOUDY    58  50  76 CALM      30.14S
$$

ILZ067-068-072-073-078-083-087-091-211300-
SOUTHEAST ILLINOIS

CITY           SKY/WX    TMP DP  RH WIND       PRES   REMARKS
LAWRENCEVILLE  CLOUDY    52  48  86 SE6       30.16R
FLORA*         PTCLDY    51  48  89 CALM      30.13S
FAIRFIELD*     MOCLDY    57  49  72 SE3       30.12S
HARRISBURG*    CLOUDY    58  50  75 SE3       30.14R
ROBINSON*      CLOUDY    48  46  92 CALM      30.16S
CARMI*         MOCLDY    52  48  88 SE3       30.14R
$$

ABBREVIATIONS USED IN REMARKS
   TC - TEMPERATURE IN CELSIUS
  WCI - WIND CHILL INDEX
   HX - HEAT INDEX
  VSB - VISIBILITY
$$





USA.gov is the U.S. government's official web portal to all federal, state and local government web resources and services.